Weather in Kharagpur

India     22°19′41″N   87°15′06″E
temp.,
°C
wind,
m/s
gust,
m/s
humid.,
%
clouds,
%
prec.,
mm/h
press.,
hPa
HPBL,
m
28 june, tue
tue2823:30+29s5876100 0.0 1004590
02:30+28s4879100 0.0 1003589
05:30+28s4880100 0.0 1003564
08:30+31ssw555834 0.0 1003971
11:30+36ssw444399 0.0 10021725
14:30+37s644099 0.0 10002249
17:30+34s7751100 0.0 1000985
20:30+30sse6868100 0.0 1002588
29 june, wed
wed2923:30+29s5876100 0.0 1001606
02:30+29s4777100 0.0 1000516
05:30+28sse3680100 0.0 1000390
08:30+32s345991 0.0 1002880
11:30+36s334399 0.0 10001974
14:30+37s4338100 0.1 9971839
17:30+33sse7755100 0.1 998963
20:30+31sse686796 0.0 1000657
30 june, thu
thu3023:30+30s4767100 0.0 1001620
02:30+30ssw367078 0.0 999547
05:30+29s2576100 0.0 1000368
08:30+32ssw3359100 0.0 1001927
11:30+36s224797 0.4 10001938
14:30+35se3248100 0.9 9981489
17:30+31nnw1364100 2.7 998299
20:30+28sw3480100 3.0 1001240
1 july, fri
fri123:30+29s1275100 3.1 1001283
02:30+28w1179100 0.1 1000157
05:30+28w2382100 0.3 1000221
08:30+28wnw227599 0.0 1002326
11:30+31ese0164100 0.0 1001617
14:30+32s215784 0.0 999718
17:30+33sse2252100 0.1 9991220
20:30+30ssw356598 0.2 1001383
2 july, sat
sat223:30+29s247499 0.6 1001253
02:30+28sse2378100 0.3 1000161
05:30+28sse248018 0.6 1000191
08:30+32s336137 0.0 1001929
11:30+36s3345100 0.0 9992111
14:30+35s544724 0.4 9971615
17:30+34ssw55508 0.4 9981191
20:30+30s576694 0.0 1000468